TimeCET,TemperatureF,Dew PointF,Humidity,Sea Level PressureIn,VisibilityMPH,Wind Direction,Wind SpeedMPH,Gust SpeedMPH,PrecipitationIn,Events,Conditions,WindDirDegrees,DateUTC
12:55 AM,33.8,33.8,100,29.47,0.0,West,28.8,-,N/A,Fog,Fog,270,2013-03-10 23:55:00
1:00 AM,35,33,89,,0,West,28.8,,,Fog,Heavy Fog,270,2013-03-11 00:00:00
1:55 AM,33.8,33.8,100,29.47,0.0,West,27.6,-,N/A,Fog,Fog,270,2013-03-11 00:55:00
2:55 AM,33.8,33.8,100,29.44,0.0,West,29.9,-,N/A,Fog,Fog,270,2013-03-11 01:55:00
3:55 AM,33.8,33.8,100,29.44,0.0,West,28.8,-,N/A,Fog,Fog,270,2013-03-11 02:55:00
4:55 AM,33.8,33.8,100,29.44,0.0,West,17.3,-,N/A,Fog,Fog,270,2013-03-11 03:55:00
5:55 AM,33.8,33.8,100,29.44,0.0,WSW,17.3,-,N/A,Fog,Fog,250,2013-03-11 04:55:00
6:55 AM,33.8,33.8,100,29.44,0.0,West,20.7,-,N/A,Fog,Fog,270,2013-03-11 05:55:00
7:00 AM,35,33,91,,0,West,20.7,,,Fog,Heavy Fog,270,2013-03-11 06:00:00
7:55 AM,35.6,33.8,93,29.44,0.0,West,18.4,-,N/A,Fog,Fog,270,2013-03-11 06:55:00
8:55 AM,35.6,33.8,93,29.44,0.0,West,17.3,-,N/A,Fog,Fog,270,2013-03-11 07:55:00
9:55 AM,35.6,33.8,93,29.47,-9999.0,West,12.7,-,N/A,Fog,Fog,270,2013-03-11 08:55:00
10:55 AM,35.6,35.6,100,29.47,-9999.0,West,13.8,-,N/A,Fog,Fog,280,2013-03-11 09:55:00
11:55 AM,35.6,35.6,100,29.47,-9999.0,West,12.7,-,N/A,Fog,Fog,270,2013-03-11 10:55:00
12:55 PM,35.6,33.8,93,29.47,-9999.0,West,15.0,-,N/A,Fog,Fog,260,2013-03-11 11:55:00
1:00 PM,35,34,96,,0,West,15.0,,,Snow,Light Snow,260,2013-03-11 12:00:00
1:55 PM,35.6,35.6,100,29.44,-9999.0,West,17.3,-,N/A,Fog,Fog,260,2013-03-11 12:55:00
2:55 PM,33.8,33.8,100,29.42,-9999.0,West,23.0,-,N/A,Fog,Fog,260,2013-03-11 13:55:00
3:55 PM,33.8,33.8,100,29.42,0.0,West,25.3,-,N/A,Fog,Fog,260,2013-03-11 14:55:00
4:55 PM,33.8,33.8,100,29.42,0.0,West,27.6,-,N/A,Fog,Fog,260,2013-03-11 15:55:00
5:55 PM,32.0,30.2,93,29.42,0.0,West,29.9,-,N/A,Fog,Fog,260,2013-03-11 16:55:00
6:55 PM,32.0,30.2,93,29.44,0.0,West,27.6,-,N/A,Fog,Fog,260,2013-03-11 17:55:00
7:00 PM,32,31,95,,0,West,27.6,,,Fog,Heavy Fog,260,2013-03-11 18:00:00
7:55 PM,32.0,30.2,93,29.47,0.1,West,23.0,-,N/A,Fog,Fog,260,2013-03-11 18:55:00
8:55 PM,32.0,30.2,93,29.47,0.3,WSW,9.2,-,N/A,Fog,Fog,250,2013-03-11 19:55:00
9:55 PM,32.0,30.2,93,29.47,-9999.0,WSW,5.8,-,N/A,,Clear,250,2013-03-11 20:55:00
10:55 PM,32.0,28.4,87,29.47,-9999.0,Calm,Calm,-,N/A,,Clear,0,2013-03-11 21:55:00
11:55 PM,32.0,28.4,87,29.47,-9999.0,Calm,Calm,-,N/A,,Clear,0,2013-03-11 22:55:00